Location: Logan
(41.7360°N, 111.8340°W)
Time: 14:23:28
(UTC-06:00)

Daily predictions for brighter satellites

Satellite Brightness Start Highest point End
(mag) Time Altitude Azimuth Time Altitude Azimuth Time Altitude Azimuth
SL-19 R/B 4.4 19:27:26 10° SSE 19:32:59 62° ENE 19:38:56 10° N
Okean 3 Rocket 3.7 19:29:36 10° N 19:34:10 84° E 19:38:42 10° S
SL-8 R/B 4.4 19:32:48 10° SSW 19:37:07 35° SE 19:41:29 10° ENE
SAR-Lupe-4 3.8 19:34:23 10° SSE 19:37:49 47° ENE 19:41:17 10° N
Cosmos 2056 Rocket 4.0 19:34:44 10° NNW 19:40:09 69° WSW 19:45:31 10° S
Cosmos 1766 3.2 19:36:18 10° S 19:40:13 69° E 19:44:12 10° NNE
Timation 1 Rocket 4.4 19:35:27 10° NNW 19:41:27 83° ENE 19:47:25 10° SSE
Cosmos 1378 3.1 19:38:36 10° N 19:42:21 75° E 19:46:04 10° SSE
SL-16 R/B 2.4 19:38:21 10° SSW 19:44:02 81° WNW 19:49:47 10° NNE
Resurs 01 Rocket 2.5 19:40:22 10° SE 19:44:14 30° ENE 19:48:07 10° N
FREGAT/IRIS 2.8 19:53:11 10° SSE 19:56:11 50° ENE 19:59:12 10° N
Abrixas 2.9 19:53:34 10° SW 19:56:26 43° SE 19:58:49 14° ENE
Meteor 1-28 Rocket 3.1 19:53:59 10° NNE 19:57:41 61° E 20:01:20 10° S
COSMO-SKYMED 1 3.3 19:53:37 10° N 19:57:54 60° WNW 20:02:10 10° SSW
Helios 1B rocket 3.0 19:56:38 10° NNE 20:00:25 35° E 20:04:11 10° SSE
USA 215 3.7 19:56:02 10° ENE 20:02:11 42° SE 20:08:18 10° SSW
H-2A R/B 4.2 20:03:24 15° E 20:05:03 19° ENE 20:07:49 10° NNE
Cosmos 1346 3.6 20:02:38 10° N 20:05:25 34° ENE 20:08:10 10° SE
CZ-4B DEB 4.3 20:05:05 17° E 20:06:12 20° ENE 20:08:39 10° NNE
Cosmos 1805 3.2 20:03:26 10° S 20:07:18 63° E 20:11:13 10° NNE
Nadezhda 4 Rocket 4.2 20:02:11 10° N 20:08:15 49° ENE 20:14:13 10° SSE
GPS 2-04 Rocket1 4.0 20:06:45 10° SW 20:09:31 22° SSE 20:11:14 16° SE
Cosmos 1953 2.2 20:11:15 10° S 20:15:13 81° E 20:19:13 10° N
Meteor 1-29 3.4 20:12:18 10° NNE 20:15:38 40° E 20:18:56 10° S
Cosmos 1076 Rocket 4.0 20:11:26 10° NNW 20:15:45 66° W 20:20:03 10° S
Cosmos 1766 Rocket 3.6 20:11:42 10° N 20:16:06 81° W 20:20:25 10° S
Cosmos 1092 Rocket 4.3 20:11:26 10° N 20:17:16 41° ENE 20:23:02 10° SE
Gbstr 26 Del rocket 3.8 20:15:26 10° SSW 20:19:25 36° SE 20:22:25 19° ENE
Cosmos 1943 Rocket 3.7 20:15:46 10° N 20:19:30 18° NE 20:21:09 16° ENE
NOAA 12 4.4 20:17:44 10° S 20:22:58 70° WSW 20:28:16 10° NNW
Cosmos 2369 Rocket 2.8 20:18:43 10° N 20:23:59 38° ENE 20:27:10 21° ESE
Cosmos-2242 3.0 20:20:15 10° S 20:24:36 89° ESE 20:29:02 10° N
Cosmos 1943 3.6 20:20:24 10° S 20:25:30 36° ESE 20:30:36 10° NE
Cosmos 2151 4.0 20:25:09 10° NNE 20:28:38 24° ENE 20:28:44 24° ENE
Cosmos 1733 3.8 20:26:05 10° SSE 20:29:37 35° E 20:33:10 10° NNE
Cosmos 1603 3.8 20:25:57 10° SSW 20:31:42 86° WNW 20:37:29 10° NNE
Cosmos 1470 2.9 20:28:10 10° SSE 20:31:53 46° E 20:35:37 10° NNE
OAO 3 Rocket 4.2 20:28:32 10° WSW 20:32:48 34° S 20:35:09 21° SE
TELKOM 3 2.9 20:30:19 10° NW 20:33:02 64° NNE 20:33:05 64° NE
ATLAS CENTAUR R/B 4.1 20:28:05 10° WSW 20:33:29 74° NW 20:51:31 10° NE
Cosmos 1634 Rocket 4.3 20:27:48 10° SSE 20:33:34 41° E 20:39:19 10° NNE
Cosmos 1452 Rocket 4.4 20:31:22 10° NNW 20:36:27 50° WSW 20:41:29 10° S
Cosmos 1674 2.6 20:35:08 10° N 20:39:00 64° E 20:41:20 22° SSE
ASTEX 1 3.3 20:38:57 10° NNE 20:43:50 63° E 20:48:39 10° S
Cosmos 1500 Rocket 3.4 20:44:13 10° N 20:48:40 80° E 20:52:00 18° SSE
Cosmos 1842 Rocket 3.4 20:44:54 10° S 20:49:13 79° E 20:53:35 10° N
BREEZE-M DEB (TANK) 3.8 20:41:46 10° W 20:55:12 64° N 20:57:17 35° ENE
ERBS 4.3 20:54:29 10° NNW 20:56:38 19° NNE 20:56:38 19° NNE
Cosmos 839 Rocket 4.2 20:49:46 10° NNW 20:57:29 66° NE 21:00:25 35° SE
ISS -3.1 20:57:00 10° WSW 21:00:07 67° NW 21:00:07 67° NW
ATLAS 5 CENTAUR R/B 3.7 20:58:08 10° WSW 21:02:27 30° NW 21:07:06 10° NNE
ALOS 2.4 20:59:05 15° S 21:02:56 74° WSW 21:07:37 10° NNW
Helios 1A 4.2 20:59:30 10° S 21:03:29 41° W 21:07:29 10° NNW
Meteor 1-16 Rocket 4.1 21:04:28 41° SE 21:05:54 54° E 21:11:05 10° NNE
CENTAUR R/B 2.4 21:00:09 10° SSW 21:06:09 80° ESE 21:12:59 10° NE
Meteor 1-11 4.2 21:08:18 10° N 21:14:03 62° ENE 21:14:58 55° ESE
SL-8 R/B 4.0 21:14:47 10° WSW 21:19:31 63° NNW 21:20:21 53° NNE
Cosmos 1627 Rocket 4.3 21:13:34 10° N 21:19:49 81° E 21:22:29 37° SSE
Resurs 01 Rocket 3.8 21:16:59 10° SSW 21:20:41 25° W 21:24:24 10° NW
Envisat 3.8 21:22:48 37° NE 21:22:48 37° NE 21:26:22 10° N
Cosmos 1328 4.3 21:20:13 10° NNW 21:23:26 55° NNW 21:23:26 55° NNW
CZ-2D R/B 4.3 21:26:23 39° SW 21:27:02 43° W 21:30:46 10° NNW
Cosmos 1174 4.4 21:24:00 10° SW 21:28:37 58° WNW 21:28:41 57° NW
Cosmos 158 Rocket 4.4 21:28:44 10° SSW 21:33:32 57° WNW 21:38:21 10° NNE
H-2A R/B 4.4 21:38:39 30° WSW 21:39:08 31° W 21:42:38 10° NNW
GP-B 4.1 21:40:49 10° NNW 21:45:02 44° W 21:45:35 41° WSW
USA 215 3.7 21:40:32 19° NE 21:45:19 60° NW 21:51:42 10° WSW
ERS-1 Rocket 3.7 21:55:37 47° NNW 21:55:37 47° NNW 21:59:13 10° NNW
Cosmos 2279 Rocket 4.0 21:54:11 71° SW 21:54:48 79° W 22:01:02 10° N
Cosmos 1943 Rocket 2.7 21:58:18 10° NNW 22:02:42 55° NW 22:02:42 55° NW
Gbstr 26 Del rocket 4.5 22:01:37 10° WSW 22:05:03 43° WNW 22:05:03 43° WNW
Cosmos 2369 Rocket 3.6 22:02:57 10° NW 22:07:52 31° WSW 22:09:00 29° SW
CENTAUR R/B 4.4 22:52:26 10° W 22:57:41 26° NNW 23:03:29 10° NNE
